Home   Weather   38°57'N, 121°32'E   Past weeks
Flag for China

Past Weather in 38°57'N, 121°32'E, China — Yesterday and Last 2 Weeks

Now
54 °F

Passing clouds.


Feels Like: 49 °F
Forecast: 53 / 38 °F
Wind: 15 mph from South

Location: Dalian Airport

Current Time: Mar 20, 2019 at 6:14:34 am

Latest Report: Mar 20, 2019 at 5:30 am


Visibility: N/A

Pressure: 29.74 "Hg

Humidity: 44%

Dew Point: 32 °F

Location of 38°57'N, 121°32'ELocation

Past Weather in 38°57'N, 121°32'E — Graph

°F

38°57'N, 121°32'E Temperature Yesterday

Maximum temperature yesterday: 70 °F (at 1:00 pm)
Minimum temperature yesterday: 41 °F (at 5:30 am)
Average temperature yesterday: 53 °F

High & Low Weather Summary for the Past Weeks

 TemperatureHumidityPressure
High70 °F (Mar 19, 1:00 pm)100% (Mar 5, 11:00 pm)30.36 "Hg (Mar 5, 11:00 pm)
Low30 °F (Mar 13, 12:30 am)13% (Mar 13, 5:00 pm)29.74 "Hg (Mar 11, 4:30 pm)
Average43 °F50%30.08 "Hg
* Reported Mar 5 4:00 am — Mar 20 4:30 am, 38°57'N, 121°32'E. Weather by CustomWeather, © 2019

Note: Actual official high and low records may vary slightly from our data, if they occured in-between our weather recording intervals... More about our weather records

Advertising

38°57'N, 121°32'E Weather History for the Previous 24 Hours

Scroll right to see more
 ConditionsComfort  
Time TempWeatherWind HumidityBarometerVisibility
4:30 am
Wed, Mar 20
54 °FPassing clouds.10 mph47%29.77 "HgN/A
4:00 am54 °FPassing clouds.10 mph47%29.80 "HgN/A
3:30 am55 °FPassing clouds.10 mph41%29.80 "HgN/A
3:00 am55 °FClear.13 mph41%29.80 "Hg10 mi
2:30 am54 °FClear.10 mph47%29.83 "Hg10 mi
2:00 am55 °FPassing clouds.10 mph47%29.83 "HgN/A
1:30 am55 °FClear.10 mph51%29.83 "Hg10 mi
1:00 am55 °FClear.10 mph51%29.83 "Hg10 mi
12:30 am55 °FClear.10 mph51%29.83 "Hg10 mi
12:00 am57 °FClear.8 mph44%29.83 "Hg10 mi
11:30 pm
Tue, Mar 19
57 °FClear.8 mph44%29.83 "Hg10 mi
11:00 pm59 °FPassing clouds.8 mph39%29.86 "HgN/A
10:30 pm59 °FClear.8 mph39%29.86 "Hg10 mi
10:00 pm59 °FPassing clouds.8 mph39%29.86 "HgN/A
9:30 pm50 °FFog.8 mph67%29.86 "Hg3 mi
9:00 pm48 °FFog.8 mph71%29.86 "Hg3 mi
8:30 pm48 °FFog.13 mph71%29.86 "Hg3 mi
8:00 pm48 °FFog.10 mph71%29.83 "Hg3 mi
7:30 pm48 °FFog.8 mph71%29.83 "Hg3 mi
7:00 pm48 °FFog.8 mph71%29.83 "Hg3 mi
6:30 pm48 °FFog.10 mph71%29.83 "Hg3 mi
6:00 pm48 °FFog.10 mph71%29.83 "Hg3 mi
5:30 pm48 °FFog.13 mph71%29.80 "Hg3 mi
5:00 pm50 °FClear.15 mph67%29.80 "Hg4 mi
4:30 pm52 °FClear.13 mph67%29.80 "Hg4 mi
4:00 pm54 °FClear.15 mph63%29.83 "Hg5 mi
3:30 pm59 °FClear.13 mph51%29.80 "Hg5 mi
3:00 pm66 °FClear.8 mph40%29.83 "Hg5 mi
2:30 pm68 °FClear.8 mph38%29.83 "Hg5 mi
2:00 pm66 °FClear.6 mph43%29.83 "Hg5 mi
1:30 pm70 °FClear.8 mph38%29.83 "Hg5 mi
1:00 pm70 °FClear.8 mph38%29.86 "Hg5 mi
12:30 pm68 °FClear.8 mph40%29.86 "Hg5 mi
12:00 pm63 °FClear.15 mph49%29.86 "Hg5 mi
11:30 am63 °FClear.10 mph45%29.89 "Hg5 mi
11:00 am64 °FClear.10 mph46%29.89 "Hg5 mi
10:30 am61 °FClear.13 mph52%29.89 "Hg4 mi
10:00 am55 °FClear.10 mph59%29.89 "Hg4 mi
9:30 am54 °FClear.10 mph63%29.89 "Hg4 mi
8:30 am50 °FClear.10 mph71%29.92 "Hg4 mi
8:00 am46 °FFog.10 mph82%29.89 "Hg3 mi
7:30 am45 °FFog.10 mph87%29.89 "Hg3 mi
7:00 am43 °FFog.8 mph93%29.89 "Hg2 mi
6:30 am41 °FFog.8 mph93%29.89 "Hg2 mi
6:00 am41 °FFog.8 mph93%29.86 "Hg3 mi
Weather by CustomWeather, © 2019

See weather overview